BRISAT

Last updated on Jan. 21, 2021, 6:16 a.m. UTC

1 41591U 16039A   21020.03035368 -.00000191  00000-0  00000-0 0  9994
2 41591   0.0142  49.8781 0002076 245.6069 345.5696  1.00269100 16827
UTC
Height (km)
Latitude
Longitude
Inclination
Orbital Period
UTC large
Height (km)
Speed (km/s)
/
Latitude / Longitude
Inclination (degrees)
Orbital Period (minutes)
Azimuth
Elevation
Range (km)
Doppler Factor
iOS Compass Heading
iOS Angle

Next 30 passes for location: Hong Kong

Rise time Rise Azimuth (degrees) Set time Set Azimuth (degrees) Duration Max altitude (degrees)

No matching passes for this satellites